Location: Newport
(44.6370°N, 124.0520°W)
Time: 00:09:50
(UTC-07:00)

ISS - Pass Details

Date: 16 October 2017
Orbit: 401 x 408 km, 51.6° (Epoch: 20 October)

Event Time Altitude Azimuth Distance (km) Brightness Sun altitude
Rises 19:22:29 0° 291° (WNW) 2,324 1.4 -10.2°
Reaches altitude 10° 19:24:54 10° 274° (W) 1,462 0.6 -10.6°
Maximum altitude 19:27:23 20° 224° (SW) 1,000 -1.2 -11.1°
Drops below altitude 10° 19:29:52 10° 175° (S) 1,457 -1.0 -11.5°
Sets 19:32:17 0° 157° (SSE) 2,314 -0.2 -11.9°
